TimeEDT,TemperatureF,Dew PointF,Humidity,Sea Level PressureIn,VisibilityMPH,Wind Direction,Wind SpeedMPH,Gust SpeedMPH,PrecipitationIn,Events,Conditions,WindDirDegrees,DateUTC
12:51 AM,63.0,48.0,58,29.98,10.0,Calm,Calm,-,N/A,,Overcast,0,2012-10-02 04:51:00
1:51 AM,63.0,48.0,58,29.99,10.0,West,3.5,-,N/A,,Scattered Clouds,260,2012-10-02 05:51:00
2:51 AM,63.0,48.9,60,29.98,10.0,Calm,Calm,-,N/A,,Overcast,0,2012-10-02 06:51:00
3:51 AM,63.0,48.9,60,29.98,10.0,Calm,Calm,-,N/A,,Overcast,0,2012-10-02 07:51:00
4:51 AM,64.0,48.9,58,29.99,10.0,West,3.5,-,N/A,,Overcast,260,2012-10-02 08:51:00
5:51 AM,64.0,51.1,63,29.99,10.0,Calm,Calm,-,N/A,,Overcast,0,2012-10-02 09:51:00
6:51 AM,63.0,52.0,67,30.00,10.0,Calm,Calm,-,N/A,,Overcast,0,2012-10-02 10:51:00
7:51 AM,64.0,52.0,65,30.01,10.0,Calm,Calm,-,N/A,,Overcast,0,2012-10-02 11:51:00
8:51 AM,66.0,53.1,63,30.02,10.0,South,3.5,-,N/A,,Overcast,170,2012-10-02 12:51:00
9:51 AM,66.9,54.0,63,30.02,10.0,ESE,3.5,-,N/A,,Overcast,110,2012-10-02 13:51:00
10:01 AM,68.0,54.0,61,30.05,10.0,North,-9999.0,-,N/A,,Overcast,0,2012-10-02 14:01:00
10:47 AM,68.0,53.6,60,30.03,10.0,Calm,Calm,-,N/A,,Scattered Clouds,0,2012-10-02 14:47:00
10:51 AM,68.0,54.0,61,30.01,10.0,Variable,4.6,-,N/A,,Scattered Clouds,0,2012-10-02 14:51:00
11:51 AM,64.0,59.0,84,30.02,4.0,South,4.6,-,0.01,Rain,Light Rain,180,2012-10-02 15:51:00
12:51 PM,63.0,61.0,93,30.02,2.5,Calm,Calm,-,0.05,Rain,Rain,0,2012-10-02 16:51:00
1:17 PM,62.1,61.0,96,30.03,2.5,East,8.1,-,0.06,Rain,Light Rain,90,2012-10-02 17:17:00
1:26 PM,62.1,60.1,93,30.03,3.0,ESE,5.8,-,0.07,Rain,Light Rain,110,2012-10-02 17:26:00
1:51 PM,62.1,61.0,96,30.00,3.0,NE,4.6,-,0.08,Rain,Light Rain,50,2012-10-02 17:51:00
2:07 PM,62.1,61.0,96,30.03,3.0,Variable,4.6,-,0.01,Rain,Light Rain,0,2012-10-02 18:07:00
2:20 PM,62.1,61.0,96,30.03,2.0,Calm,Calm,-,0.02,Rain,Light Rain,0,2012-10-02 18:20:00
2:34 PM,62.1,61.0,96,30.02,4.0,ENE,6.9,-,0.02,Rain,Light Rain,60,2012-10-02 18:34:00
2:51 PM,62.1,61.0,96,29.99,3.0,ENE,4.6,-,0.03,Rain,Light Rain,70,2012-10-02 18:51:00
3:08 PM,62.1,61.0,96,30.01,2.0,ENE,4.6,-,0.02,Rain,Light Rain,70,2012-10-02 19:08:00
3:36 PM,62.1,61.0,96,30.01,1.8,Variable,3.5,-,0.05,Rain,Rain,0,2012-10-02 19:36:00
3:51 PM,62.1,61.0,96,29.99,1.5,ENE,3.5,-,0.09,Rain,Rain,60,2012-10-02 19:51:00
4:02 PM,62.1,62.1,100,30.00,1.5,Variable,3.5,-,0.02,Rain,Light Rain,0,2012-10-02 20:02:00
4:27 PM,63.0,62.1,97,30.00,2.0,ENE,3.5,-,0.03,,Overcast,60,2012-10-02 20:27:00
4:51 PM,63.0,62.1,97,29.98,1.5,Variable,5.8,-,0.05,Rain,Light Rain,0,2012-10-02 20:51:00
5:51 PM,62.1,61.0,96,29.97,2.0,East,8.1,-,0.05,,Overcast,80,2012-10-02 21:51:00
6:33 PM,62.1,61.0,96,29.99,3.0,Variable,5.8,-,0.00,Rain,Light Rain,0,2012-10-02 22:33:00
6:51 PM,62.1,62.1,100,29.97,2.5,Variable,4.6,-,0.01,,Overcast,0,2012-10-02 22:51:00
7:19 PM,62.1,61.0,96,30.00,3.0,East,6.9,-,N/A,,Overcast,80,2012-10-02 23:19:00
7:27 PM,62.1,61.0,96,30.00,2.5,Variable,4.6,-,N/A,,Overcast,0,2012-10-02 23:27:00
7:51 PM,63.0,62.1,97,29.99,2.5,Variable,3.5,-,N/A,,Overcast,0,2012-10-02 23:51:00
8:16 PM,63.0,62.1,97,30.01,1.5,ENE,5.8,-,N/A,,Overcast,60,2012-10-03 00:16:00
8:38 PM,63.0,62.1,97,30.01,1.2,ENE,4.6,-,N/A,,Overcast,60,2012-10-03 00:38:00
8:51 PM,63.0,63.0,100,29.99,1.0,Variable,3.5,-,N/A,,Overcast,0,2012-10-03 00:51:00
9:51 PM,64.0,63.0,96,30.00,1.2,Calm,Calm,-,0.01,,Overcast,0,2012-10-03 01:51:00
10:51 PM,64.0,63.0,96,30.00,1.0,NE,3.5,-,N/A,,Overcast,40,2012-10-03 02:51:00
11:17 PM,64.0,63.0,96,30.02,0.8,ENE,3.5,-,N/A,,Overcast,60,2012-10-03 03:17:00
11:51 PM,64.0,63.0,96,29.99,0.5,Calm,Calm,-,N/A,Fog,Fog,0,2012-10-03 03:51:00